Time,TemperatureF,DewpointF,PressureIn,WindDirection,WindDirectionDegrees,WindSpeedMPH,WindSpeedGustMPH,Humidity,HourlyPrecipIn,Conditions,Clouds,dailyrainin,SoftwareType,DateUTC
2013-02-27 00:00:00,0.0,-3.2,29.51,NW,305,0.0,0.0,86,0.00,,,0.00,LWC V2.00 B2112,2013-02-27 09:00:00,
2013-02-27 00:05:00,-0.1,-3.3,29.51,NW,305,0.0,0.0,86,0.00,,,0.00,LWC V2.00 B2112,2013-02-27 09:05:00,
2013-02-27 00:10:00,-0.4,-3.6,29.51,NW,305,0.0,0.0,86,0.00,,,0.00,LWC V2.00 B2112,2013-02-27 09:10:00,
2013-02-27 00:15:00,-0.5,-3.7,29.51,NW,305,0.0,0.0,86,0.00,,,0.00,LWC V2.00 B2112,2013-02-27 09:15:00,
2013-02-27 00:16:00,-0.5,-3.7,29.51,NW,305,0.0,0.0,86,0.00,,,0.00,LWC V2.00 B2112,2013-02-27 09:16:00,
2013-02-27 00:21:00,-0.3,-3.5,29.51,NW,305,0.0,0.0,86,0.00,,,0.00,LWC V2.00 B2112,2013-02-27 09:21:00,
2013-02-27 00:26:00,-0.3,-3.5,29.51,NW,305,0.0,0.0,86,0.00,,,0.00,LWC V2.00 B2112,2013-02-27 09:26:00,
2013-02-27 00:31:00,-0.4,-3.6,29.51,NW,305,0.0,0.0,86,0.00,,,0.00,LWC V2.00 B2112,2013-02-27 09:31:00,
2013-02-27 00:36:00,-0.3,-3.5,29.50,NW,305,0.0,0.0,86,0.00,,,0.00,LWC V2.00 B2112,2013-02-27 09:36:00,
2013-02-27 00:41:00,-0.3,-3.5,29.50,NW,305,0.0,0.0,86,0.00,,,0.00,LWC V2.00 B2112,2013-02-27 09:41:00,
2013-02-27 00:46:00,-0.1,-3.0,29.51,NW,305,0.0,0.0,87,0.00,,,0.00,LWC V2.00 B2112,2013-02-27 09:46:00,
2013-02-27 00:51:00,0.0,-2.9,29.51,NW,305,0.0,0.0,87,0.00,,,0.00,LWC V2.00 B2112,2013-02-27 09:51:00,
2013-02-27 00:56:00,0.1,-2.8,29.50,NW,305,0.0,0.0,87,0.00,,,0.00,LWC V2.00 B2112,2013-02-27 09:56:00,
2013-02-27 01:01:00,0.0,-2.9,29.50,NW,305,0.0,0.0,87,0.00,,,0.00,LWC V2.00 B2112,2013-02-27 10:01:00,
2013-02-27 01:06:00,-0.1,-3.0,29.50,NW,305,0.0,0.0,87,0.00,,,0.00,LWC V2.00 B2112,2013-02-27 10:06:00,
2013-02-27 01:11:00,-0.3,-3.2,29.50,NW,305,0.0,0.0,87,0.00,,,0.00,LWC V2.00 B2112,2013-02-27 10:11:00,
2013-02-27 01:16:00,-0.5,-3.7,29.50,NW,305,0.0,0.0,86,0.00,,,0.00,LWC V2.00 B2112,2013-02-27 10:16:00,
2013-02-27 01:21:00,-0.6,-3.8,29.50,NW,305,0.0,0.0,86,0.00,,,0.00,LWC V2.00 B2112,2013-02-27 10:21:00,
2013-02-27 01:26:00,-0.7,-3.9,29.50,NW,305,0.0,0.0,86,0.00,,,0.00,LWC V2.00 B2112,2013-02-27 10:26:00,
2013-02-27 01:31:00,-0.7,-3.9,29.50,NW,305,0.0,0.0,86,0.00,,,0.00,LWC V2.00 B2112,2013-02-27 10:31:00,
2013-02-27 01:36:00,-0.7,-3.9,29.50,NW,305,0.0,0.0,86,0.00,,,0.00,LWC V2.00 B2112,2013-02-27 10:36:00,
2013-02-27 01:41:00,-0.9,-4.1,29.50,NW,305,0.0,0.0,86,0.00,,,0.00,LWC V2.00 B2112,2013-02-27 10:41:00,
2013-02-27 01:46:00,-1.0,-4.2,29.50,NW,305,0.0,0.0,86,0.00,,,0.00,LWC V2.00 B2112,2013-02-27 10:46:00,
2013-02-27 01:51:00,-1.1,-4.3,29.50,NW,305,0.0,0.0,86,0.00,,,0.00,LWC V2.00 B2112,2013-02-27 10:51:00,
2013-02-27 01:56:00,-1.4,-4.5,29.50,NW,305,0.0,0.0,86,0.00,,,0.00,LWC V2.00 B2112,2013-02-27 10:56:00,
2013-02-27 02:01:00,-1.5,-4.6,29.49,NW,305,0.0,0.0,86,0.00,,,0.00,LWC V2.00 B2112,2013-02-27 11:01:00,
2013-02-27 02:06:00,-1.4,-4.5,29.49,NW,305,0.0,0.0,86,0.00,,,0.00,LWC V2.00 B2112,2013-02-27 11:06:00,
2013-02-27 02:11:00,-1.0,-4.2,29.49,NW,305,0.0,0.0,86,0.00,,,0.00,LWC V2.00 B2112,2013-02-27 11:11:00,
2013-02-27 02:16:00,-1.0,-4.2,29.49,NW,305,0.0,0.0,86,0.00,,,0.00,LWC V2.00 B2112,2013-02-27 11:16:00,
2013-02-27 02:21:00,-1.3,-4.5,29.49,NW,305,0.0,0.0,86,0.00,,,0.00,LWC V2.00 B2112,2013-02-27 11:21:00,
2013-02-27 02:26:00,-1.6,-4.7,29.49,NW,305,0.0,0.0,86,0.00,,,0.00,LWC V2.00 B2112,2013-02-27 11:26:00,
2013-02-27 02:31:00,-1.7,-4.8,29.49,NW,305,0.0,0.0,86,0.00,,,0.00,LWC V2.00 B2112,2013-02-27 11:31:00,
2013-02-27 02:36:00,-1.8,-4.9,29.49,NW,305,0.0,0.0,86,0.00,,,0.00,LWC V2.00 B2112,2013-02-27 11:36:00,
2013-02-27 02:41:00,-2.0,-5.1,29.48,NW,305,0.0,0.0,86,0.00,,,0.00,LWC V2.00 B2112,2013-02-27 11:41:00,
2013-02-27 02:46:00,-1.9,-5.0,29.48,NW,305,0.0,0.0,86,0.00,,,0.00,LWC V2.00 B2112,2013-02-27 11:46:00,
2013-02-27 02:51:00,-1.6,-4.7,29.48,NW,305,0.0,0.0,86,0.00,,,0.00,LWC V2.00 B2112,2013-02-27 11:51:00,
2013-02-27 02:56:00,-1.7,-4.8,29.48,NW,305,0.0,0.0,86,0.00,,,0.00,LWC V2.00 B2112,2013-02-27 11:56:00,
2013-02-27 03:01:00,-1.9,-5.0,29.48,NW,305,0.0,0.0,86,0.00,,,0.00,LWC V2.00 B2112,2013-02-27 12:01:00,
2013-02-27 03:06:00,-1.9,-5.0,29.48,NW,305,0.0,0.0,86,0.00,,,0.00,LWC V2.00 B2112,2013-02-27 12:06:00,
2013-02-27 03:11:00,-2.0,-5.1,29.48,NW,305,0.0,0.0,86,0.00,,,0.00,LWC V2.00 B2112,2013-02-27 12:11:00,
2013-02-27 03:16:00,-2.0,-5.1,29.48,NW,305,0.0,0.0,86,0.00,,,0.00,LWC V2.00 B2112,2013-02-27 12:16:00,
2013-02-27 03:21:00,-1.9,-5.0,29.48,NW,305,0.0,0.0,86,0.00,,,0.00,LWC V2.00 B2112,2013-02-27 12:21:00,
2013-02-27 03:26:00,-1.8,-4.9,29.48,NW,305,0.0,0.0,86,0.00,,,0.00,LWC V2.00 B2112,2013-02-27 12:26:00,
2013-02-27 03:31:00,-1.9,-5.0,29.48,NW,305,0.0,0.0,86,0.00,,,0.00,LWC V2.00 B2112,2013-02-27 12:31:00,
2013-02-27 03:36:00,-1.9,-5.0,29.47,NW,305,0.0,0.0,86,0.00,,,0.00,LWC V2.00 B2112,2013-02-27 12:36:00,
2013-02-27 03:41:00,-2.0,-5.1,29.48,NW,305,0.0,0.0,86,0.00,,,0.00,LWC V2.00 B2112,2013-02-27 12:41:00,
2013-02-27 03:46:00,-2.1,-5.2,29.47,NW,305,0.0,0.0,86,0.00,,,0.00,LWC V2.00 B2112,2013-02-27 12:46:00,
2013-02-27 03:51:00,-2.3,-5.4,29.47,NW,305,0.0,0.0,86,0.00,,,0.00,LWC V2.00 B2112,2013-02-27 12:51:00,
2013-02-27 03:56:00,-2.4,-5.5,29.47,NW,305,0.0,0.0,86,0.00,,,0.00,LWC V2.00 B2112,2013-02-27 12:56:00,
2013-02-27 04:01:00,-2.6,-5.7,29.47,NW,305,0.0,0.0,86,0.00,,,0.00,LWC V2.00 B2112,2013-02-27 13:01:00,
2013-02-27 04:06:00,-2.5,-5.6,29.47,NW,305,0.0,0.0,86,0.00,,,0.00,LWC V2.00 B2112,2013-02-27 13:06:00,
2013-02-27 04:11:00,-2.2,-5.3,29.47,NW,305,0.0,0.0,86,0.00,,,0.00,LWC V2.00 B2112,2013-02-27 13:11:00,
2013-02-27 04:16:00,-2.2,-5.3,29.47,NW,305,0.0,0.0,86,0.00,,,0.00,LWC V2.00 B2112,2013-02-27 13:16:00,
2013-02-27 04:21:00,-2.5,-5.6,29.46,NW,305,0.0,0.0,86,0.00,,,0.00,LWC V2.00 B2112,2013-02-27 13:21:00,
2013-02-27 04:26:00,-2.7,-5.8,29.46,NW,305,0.0,0.0,86,0.00,,,0.00,LWC V2.00 B2112,2013-02-27 13:26:00,
2013-02-27 04:31:00,-2.8,-5.9,29.46,NW,305,0.0,0.0,86,0.00,,,0.00,LWC V2.00 B2112,2013-02-27 13:31:00,
2013-02-27 04:36:00,-3.0,-6.1,29.46,NW,305,0.0,0.0,86,0.00,,,0.00,LWC V2.00 B2112,2013-02-27 13:36:00,
2013-02-27 04:41:00,-3.1,-6.2,29.46,NW,305,0.0,0.0,86,0.00,,,0.00,LWC V2.00 B2112,2013-02-27 13:41:00,
2013-02-27 04:46:00,-3.1,-6.2,29.46,NW,305,0.0,0.0,86,0.00,,,0.00,LWC V2.00 B2112,2013-02-27 13:46:00,
2013-02-27 04:51:00,-3.1,-6.2,29.46,NW,305,0.0,0.0,86,0.00,,,0.00,LWC V2.00 B2112,2013-02-27 13:51:00,
2013-02-27 04:56:00,-3.2,-6.6,29.46,NW,305,0.0,0.0,85,0.00,,,0.00,LWC V2.00 B2112,2013-02-27 13:56:00,
2013-02-27 05:01:00,-3.4,-6.8,29.46,NW,305,0.0,0.0,85,0.00,,,0.00,LWC V2.00 B2112,2013-02-27 14:01:00,
2013-02-27 05:06:00,-3.5,-6.9,29.46,NW,305,0.0,0.0,85,0.00,,,0.00,LWC V2.00 B2112,2013-02-27 14:06:00,
2013-02-27 05:11:00,-3.6,-7.0,29.45,NW,305,0.0,0.0,85,0.00,,,0.00,LWC V2.00 B2112,2013-02-27 14:11:00,
2013-02-27 05:16:00,-3.3,-6.4,29.45,NW,305,0.0,0.0,86,0.00,,,0.00,LWC V2.00 B2112,2013-02-27 14:16:00,
2013-02-27 05:21:00,-3.0,-6.1,29.45,NW,305,0.0,0.0,86,0.00,,,0.00,LWC V2.00 B2112,2013-02-27 14:21:00,
2013-02-27 05:26:00,-2.9,-6.0,29.45,NW,305,0.0,0.0,86,0.00,,,0.00,LWC V2.00 B2112,2013-02-27 14:26:00,
2013-02-27 05:31:00,-2.7,-5.8,29.45,NW,305,0.0,0.0,86,0.00,,,0.00,LWC V2.00 B2112,2013-02-27 14:31:00,
2013-02-27 05:36:00,-2.9,-6.0,29.45,NW,305,0.0,0.0,86,0.00,,,0.00,LWC V2.00 B2112,2013-02-27 14:36:00,
2013-02-27 05:41:00,-3.3,-6.7,29.44,NW,305,0.0,0.0,85,0.00,,,0.00,LWC V2.00 B2112,2013-02-27 14:41:00,
2013-02-27 05:46:00,-3.6,-7.0,29.44,NW,305,0.0,0.0,85,0.00,,,0.00,LWC V2.00 B2112,2013-02-27 14:46:00,
2013-02-27 05:51:00,-3.9,-7.2,29.44,NW,305,0.0,0.0,85,0.00,,,0.00,LWC V2.00 B2112,2013-02-27 14:51:00,
2013-02-27 05:56:00,-4.0,-7.3,29.44,NW,305,0.0,0.0,85,0.00,,,0.00,LWC V2.00 B2112,2013-02-27 14:56:00,
2013-02-27 06:01:00,-4.1,-7.4,29.43,NW,305,0.0,0.0,85,0.00,,,0.00,LWC V2.00 B2112,2013-02-27 15:01:00,
2013-02-27 06:06:00,-4.2,-7.5,29.43,NW,305,0.0,0.0,85,0.00,,,0.00,LWC V2.00 B2112,2013-02-27 15:06:00,
2013-02-27 06:11:00,-4.2,-7.5,29.43,NW,305,0.0,0.0,85,0.00,,,0.00,LWC V2.00 B2112,2013-02-27 15:11:00,
2013-02-27 06:16:00,-4.1,-7.4,29.43,NW,305,0.0,0.0,85,0.00,,,0.00,LWC V2.00 B2112,2013-02-27 15:16:00,
2013-02-27 06:21:00,-4.2,-7.5,29.43,NW,305,0.0,0.0,85,0.00,,,0.00,LWC V2.00 B2112,2013-02-27 15:21:00,
2013-02-27 06:26:00,-4.3,-7.6,29.43,NW,305,0.0,0.0,85,0.00,,,0.00,LWC V2.00 B2112,2013-02-27 15:26:00,
2013-02-27 06:31:00,-4.3,-7.6,29.43,NW,305,0.0,0.0,85,0.00,,,0.00,LWC V2.00 B2112,2013-02-27 15:31:00,
2013-02-27 06:36:00,-4.5,-7.8,29.43,NW,305,0.0,0.0,85,0.00,,,0.00,LWC V2.00 B2112,2013-02-27 15:36:00,
2013-02-27 06:41:00,-4.6,-7.9,29.43,NW,305,0.0,0.0,85,0.00,,,0.00,LWC V2.00 B2112,2013-02-27 15:41:00,
2013-02-27 06:46:00,-4.6,-7.9,29.43,NW,305,0.0,0.0,85,0.00,,,0.00,LWC V2.00 B2112,2013-02-27 15:46:00,
2013-02-27 06:51:00,-4.6,-7.9,29.43,NW,305,0.0,0.0,85,0.00,,,0.00,LWC V2.00 B2112,2013-02-27 15:51:00,
2013-02-27 06:56:00,-4.7,-8.0,29.43,NW,305,0.0,0.0,85,0.00,,,0.00,LWC V2.00 B2112,2013-02-27 15:56:00,
2013-02-27 07:01:00,-4.8,-8.1,29.43,NW,305,0.0,0.0,85,0.00,,,0.00,LWC V2.00 B2112,2013-02-27 16:01:00,
2013-02-27 07:06:00,-4.9,-8.2,29.43,NW,305,0.0,0.0,85,0.00,,,0.00,LWC V2.00 B2112,2013-02-27 16:06:00,
2013-02-27 07:11:00,-5.0,-8.3,29.43,NW,305,0.0,0.0,85,0.00,,,0.00,LWC V2.00 B2112,2013-02-27 16:11:00,
2013-02-27 07:16:00,-5.0,-8.3,29.43,NW,305,0.0,0.0,85,0.00,,,0.00,LWC V2.00 B2112,2013-02-27 16:16:00,
2013-02-27 07:21:00,-5.0,-8.3,29.42,NW,305,0.0,0.0,85,0.00,,,0.00,LWC V2.00 B2112,2013-02-27 16:21:00,
2013-02-27 07:26:00,-4.9,-8.2,29.42,NW,305,0.0,0.0,85,0.00,,,0.00,LWC V2.00 B2112,2013-02-27 16:26:00,
2013-02-27 07:31:00,-4.8,-8.1,29.42,NW,305,0.0,1.0,85,0.00,,,0.00,LWC V2.00 B2112,2013-02-27 16:31:00,
2013-02-27 07:36:00,-4.7,-8.0,29.42,NW,305,0.0,0.0,85,0.00,,,0.00,LWC V2.00 B2112,2013-02-27 16:36:00,
2013-02-27 07:41:00,-4.8,-8.1,29.42,NW,305,0.0,0.0,85,0.00,,,0.00,LWC V2.00 B2112,2013-02-27 16:41:00,
2013-02-27 07:46:00,-4.7,-8.0,29.42,NW,305,0.0,0.0,85,0.00,,,0.00,LWC V2.00 B2112,2013-02-27 16:46:00,
2013-02-27 07:51:00,-4.6,-7.9,29.42,NW,305,0.0,0.0,85,0.00,,,0.00,LWC V2.00 B2112,2013-02-27 16:51:00,
2013-02-27 07:56:00,-4.6,-7.9,29.42,NW,305,0.0,0.0,85,0.00,,,0.00,LWC V2.00 B2112,2013-02-27 16:56:00,
2013-02-27 08:01:00,-4.8,-8.1,29.42,NW,305,0.0,0.0,85,0.00,,,0.00,LWC V2.00 B2112,2013-02-27 17:01:00,
2013-02-27 08:06:00,-4.9,-8.2,29.42,NW,305,0.0,0.0,85,0.00,,,0.00,LWC V2.00 B2112,2013-02-27 17:06:00,
2013-02-27 08:11:00,-5.0,-8.3,29.42,NW,305,0.0,0.0,85,0.00,,,0.00,LWC V2.00 B2112,2013-02-27 17:11:00,
2013-02-27 08:16:00,-5.0,-8.3,29.42,NW,305,0.0,0.0,85,0.00,,,0.00,LWC V2.00 B2112,2013-02-27 17:16:00,
2013-02-27 08:21:00,-4.8,-8.1,29.42,NW,305,0.0,0.0,85,0.00,,,0.00,LWC V2.00 B2112,2013-02-27 17:21:00,
2013-02-27 08:26:00,-4.6,-7.9,29.42,NW,305,0.0,0.0,85,0.00,,,0.00,LWC V2.00 B2112,2013-02-27 17:26:00,
2013-02-27 08:31:00,-4.6,-7.9,29.42,NW,305,0.0,0.0,85,0.00,,,0.00,LWC V2.00 B2112,2013-02-27 17:31:00,
2013-02-27 08:36:00,-4.5,-7.8,29.42,NW,305,0.0,0.0,85,0.00,,,0.00,LWC V2.00 B2112,2013-02-27 17:36:00,
2013-02-27 08:41:00,-4.3,-7.6,29.42,NW,305,0.0,0.0,85,0.00,,,0.00,LWC V2.00 B2112,2013-02-27 17:41:00,
2013-02-27 08:46:00,-4.1,-7.4,29.42,NW,305,0.0,0.0,85,0.00,,,0.00,LWC V2.00 B2112,2013-02-27 17:46:00,
2013-02-27 08:51:00,-4.0,-7.3,29.42,NW,305,0.0,0.0,85,0.00,,,0.00,LWC V2.00 B2112,2013-02-27 17:51:00,
2013-02-27 08:56:00,-3.9,-7.2,29.42,NW,305,0.0,0.0,85,0.00,,,0.00,LWC V2.00 B2112,2013-02-27 17:56:00,
2013-02-27 09:01:00,-3.7,-7.1,29.42,NW,305,0.0,0.0,85,0.00,,,0.00,LWC V2.00 B2112,2013-02-27 18:01:00,
2013-02-27 09:06:00,-3.5,-6.9,29.41,NW,305,0.0,0.0,85,0.00,,,0.00,LWC V2.00 B2112,2013-02-27 18:06:00,
2013-02-27 09:11:00,-3.1,-6.5,29.42,NW,305,0.0,0.0,85,0.00,,,0.00,LWC V2.00 B2112,2013-02-27 18:11:00,
2013-02-27 09:16:00,-2.4,-5.8,29.41,NW,305,0.0,0.0,85,0.00,,,0.00,LWC V2.00 B2112,2013-02-27 18:16:00,
2013-02-27 09:21:00,-1.8,-4.9,29.41,NW,305,0.0,0.0,86,0.00,,,0.01,LWC V2.00 B2112,2013-02-27 18:21:00,
2013-02-27 09:26:00,-1.3,-4.5,29.41,NW,305,0.0,0.0,86,0.00,,,0.01,LWC V2.00 B2112,2013-02-27 18:26:00,
2013-02-27 09:31:00,-0.9,-4.1,29.41,NW,305,0.0,0.0,86,0.00,,,0.01,LWC V2.00 B2112,2013-02-27 18:31:00,
2013-02-27 09:36:00,-0.3,-3.5,29.41,NW,305,0.0,1.0,86,0.00,,,0.01,LWC V2.00 B2112,2013-02-27 18:36:00,
2013-02-27 09:41:00,0.3,-2.9,29.41,NW,305,0.0,0.0,86,0.00,,,0.01,LWC V2.00 B2112,2013-02-27 18:41:00,
2013-02-27 09:46:00,0.9,-2.3,29.41,NW,305,0.0,0.0,86,0.00,,,0.01,LWC V2.00 B2112,2013-02-27 18:46:00,
2013-02-27 09:51:00,1.5,-1.7,29.42,NW,305,0.0,0.0,86,0.00,,,0.01,LWC V2.00 B2112,2013-02-27 18:51:00,
2013-02-27 09:56:00,2.5,-0.5,29.41,WSW,243,0.0,1.0,87,0.00,,,0.01,LWC V2.00 B2112,2013-02-27 18:56:00,
2013-02-27 10:01:00,3.5,0.5,29.42,WSW,244,0.0,0.0,87,0.00,,,0.01,LWC V2.00 B2112,2013-02-27 19:01:00,
2013-02-27 10:06:00,4.5,1.5,29.41,WSW,244,0.0,0.0,87,0.00,,,0.01,LWC V2.00 B2112,2013-02-27 19:06:00,
2013-02-27 10:11:00,5.4,2.4,29.41,WSW,244,0.0,0.0,87,0.00,,,0.01,LWC V2.00 B2112,2013-02-27 19:11:00,
2013-02-27 10:16:00,6.4,3.4,29.41,WSW,244,0.0,0.0,87,0.00,,,0.01,LWC V2.00 B2112,2013-02-27 19:16:00,
2013-02-27 10:21:00,6.9,3.9,29.41,WSW,244,0.0,0.0,87,0.00,,,0.01,LWC V2.00 B2112,2013-02-27 19:21:00,
2013-02-27 10:26:00,7.0,4.0,29.41,WSW,243,0.0,0.0,87,0.00,,,0.01,LWC V2.00 B2112,2013-02-27 19:26:00,
2013-02-27 10:31:00,7.0,4.0,29.41,WSW,244,0.0,0.0,87,0.00,,,0.01,LWC V2.00 B2112,2013-02-27 19:31:00,
2013-02-27 10:36:00,7.4,4.4,29.41,WSW,244,0.0,0.0,87,0.00,,,0.01,LWC V2.00 B2112,2013-02-27 19:36:00,
2013-02-27 10:41:00,8.4,5.3,29.41,WSW,243,0.0,0.0,87,0.00,,,0.01,LWC V2.00 B2112,2013-02-27 19:41:00,
2013-02-27 10:46:00,9.2,6.1,29.41,WSW,243,0.0,0.0,87,0.00,,,0.01,LWC V2.00 B2112,2013-02-27 19:46:00,
2013-02-27 10:51:00,10.3,7.5,29.41,WSW,244,0.0,0.0,88,0.00,,,0.01,LWC V2.00 B2112,2013-02-27 19:51:00,
2013-02-27 10:56:00,11.3,8.5,29.41,WSW,244,0.0,0.0,88,0.00,,,0.01,LWC V2.00 B2112,2013-02-27 19:56:00,
2013-02-27 11:01:00,11.9,8.8,29.42,WSW,243,0.0,0.0,87,0.00,,,0.01,LWC V2.00 B2112,2013-02-27 20:01:00,
2013-02-27 11:06:00,12.2,9.1,29.41,WSW,244,0.0,0.0,87,0.00,,,0.01,LWC V2.00 B2112,2013-02-27 20:06:00,
2013-02-27 11:11:00,12.6,9.5,29.41,WSW,244,0.0,0.0,87,0.00,,,0.01,LWC V2.00 B2112,2013-02-27 20:11:00,
2013-02-27 11:16:00,13.5,10.4,29.41,WSW,244,0.0,0.0,87,0.00,,,0.01,LWC V2.00 B2112,2013-02-27 20:16:00,
2013-02-27 11:21:00,14.6,11.4,29.41,WSW,244,0.0,0.0,87,0.00,,,0.01,LWC V2.00 B2112,2013-02-27 20:21:00,
2013-02-27 11:26:00,15.6,12.4,29.41,WSW,244,0.0,0.0,87,0.00,,,0.01,LWC V2.00 B2112,2013-02-27 20:26:00,
2013-02-27 11:31:00,16.3,13.1,29.41,WSW,244,0.0,0.0,87,0.00,,,0.01,LWC V2.00 B2112,2013-02-27 20:31:00,
2013-02-27 11:36:00,16.7,13.3,29.41,WSW,243,0.0,0.0,86,0.00,,,0.01,LWC V2.00 B2112,2013-02-27 20:36:00,
2013-02-27 11:41:00,17.2,13.5,29.41,WSW,244,0.0,0.0,85,0.00,,,0.01,LWC V2.00 B2112,2013-02-27 20:41:00,
2013-02-27 11:46:00,18.0,14.3,29.41,WSW,244,0.0,0.0,85,0.00,,,0.01,LWC V2.00 B2112,2013-02-27 20:46:00,
2013-02-27 11:51:00,18.7,14.7,29.41,WSW,244,0.0,0.0,84,0.00,,,0.01,LWC V2.00 B2112,2013-02-27 20:51:00,
2013-02-27 11:56:00,19.7,15.4,29.41,WSW,244,0.0,0.0,83,0.00,,,0.01,LWC V2.00 B2112,2013-02-27 20:56:00,
2013-02-27 12:01:00,20.5,15.9,29.41,WSW,244,0.0,0.0,82,0.00,,,0.01,LWC V2.00 B2112,2013-02-27 21:01:00,
2013-02-27 12:06:00,21.3,16.4,29.41,WSW,244,0.0,0.0,81,0.00,,,0.01,LWC V2.00 B2112,2013-02-27 21:06:00,
2013-02-27 12:11:00,21.8,16.6,29.40,WSW,243,0.0,0.0,80,0.00,,,0.01,LWC V2.00 B2112,2013-02-27 21:11:00,
2013-02-27 12:16:00,22.4,16.9,29.40,WSW,244,0.0,0.0,79,0.00,,,0.01,LWC V2.00 B2112,2013-02-27 21:16:00,
2013-02-27 12:21:00,23.1,17.6,29.41,WSW,244,0.0,0.0,79,0.00,,,0.01,LWC V2.00 B2112,2013-02-27 21:21:00,
2013-02-27 12:26:00,23.7,17.6,29.40,WSW,243,0.0,0.0,77,0.00,,,0.01,LWC V2.00 B2112,2013-02-27 21:26:00,
2013-02-27 12:31:00,24.4,17.6,29.40,WSW,244,0.0,0.0,75,0.00,,,0.01,LWC V2.00 B2112,2013-02-27 21:31:00,
2013-02-27 12:36:00,25.0,17.6,29.40,WSW,244,0.0,0.0,73,0.00,,,0.01,LWC V2.00 B2112,2013-02-27 21:36:00,
2013-02-27 12:41:00,25.6,17.8,29.40,WSW,244,0.0,0.0,72,0.00,,,0.01,LWC V2.00 B2112,2013-02-27 21:41:00,
2013-02-27 12:46:00,26.2,17.8,29.40,WSW,243,0.0,0.0,70,0.00,,,0.01,LWC V2.00 B2112,2013-02-27 21:46:00,
2013-02-27 12:51:00,26.7,17.6,29.40,WSW,244,0.0,0.0,68,0.00,,,0.01,LWC V2.00 B2112,2013-02-27 21:51:00,
2013-02-27 12:56:00,27.0,17.2,29.39,WSW,244,0.0,0.0,66,0.00,,,0.01,LWC V2.00 B2112,2013-02-27 21:56:00,
2013-02-27 13:01:00,27.0,17.2,29.40,WSW,244,0.0,0.0,66,0.00,,,0.01,LWC V2.00 B2112,2013-02-27 22:01:00,
2013-02-27 13:06:00,27.3,17.1,29.40,WSW,244,0.0,0.0,65,0.00,,,0.01,LWC V2.00 B2112,2013-02-27 22:06:00,
2013-02-27 13:11:00,27.4,16.9,29.40,WSW,244,0.0,0.0,64,0.00,,,0.01,LWC V2.00 B2112,2013-02-27 22:11:00,
2013-02-27 13:16:00,27.4,16.5,29.40,WSW,244,0.0,0.0,63,0.00,,,0.01,LWC V2.00 B2112,2013-02-27 22:16:00,
2013-02-27 13:21:00,27.6,16.7,29.40,WSW,243,0.0,0.0,63,0.00,,,0.01,LWC V2.00 B2112,2013-02-27 22:21:00,
2013-02-27 13:26:00,27.9,16.6,29.40,WSW,244,0.0,0.0,62,0.00,,,0.01,LWC V2.00 B2112,2013-02-27 22:26:00,
2013-02-27 13:31:00,28.1,16.8,29.40,WSW,244,0.0,0.0,62,0.00,,,0.01,LWC V2.00 B2112,2013-02-27 22:31:00,
2013-02-27 13:36:00,28.4,17.1,29.39,WSW,244,0.0,0.0,62,0.00,,,0.01,LWC V2.00 B2112,2013-02-27 22:36:00,
2013-02-27 13:41:00,29.0,17.3,29.39,WSW,244,0.0,1.0,61,0.00,,,0.01,LWC V2.00 B2112,2013-02-27 22:41:00,
2013-02-27 13:46:00,29.4,17.3,29.39,WSW,244,0.0,0.0,60,0.00,,,0.01,LWC V2.00 B2112,2013-02-27 22:46:00,
2013-02-27 13:51:00,29.8,17.6,29.39,WSW,244,0.0,0.0,60,0.00,,,0.01,LWC V2.00 B2112,2013-02-27 22:51:00,
2013-02-27 13:56:00,30.1,17.5,29.39,WSW,243,0.0,1.0,59,0.00,,,0.01,LWC V2.00 B2112,2013-02-27 22:56:00,
2013-02-27 14:01:00,30.3,17.3,29.39,WSW,244,0.0,0.0,58,0.00,,,0.01,LWC V2.00 B2112,2013-02-27 23:01:00,
2013-02-27 14:06:00,30.5,17.1,29.39,WSW,244,0.0,0.0,57,0.00,,,0.01,LWC V2.00 B2112,2013-02-27 23:06:00,
2013-02-27 14:11:00,30.9,17.9,29.38,WSW,244,0.0,0.0,58,0.00,,,0.01,LWC V2.00 B2112,2013-02-27 23:11:00,
2013-02-27 14:16:00,31.2,17.8,29.38,WSW,243,0.0,0.0,57,0.00,,,0.01,LWC V2.00 B2112,2013-02-27 23:16:00,
2013-02-27 14:21:00,31.4,18.0,29.38,WSW,244,0.0,0.0,57,0.00,,,0.01,LWC V2.00 B2112,2013-02-27 23:21:00,
2013-02-27 14:26:00,31.6,18.1,29.38,WSW,244,0.0,0.0,57,0.00,,,0.01,LWC V2.00 B2112,2013-02-27 23:26:00,
2013-02-27 14:31:00,32.0,18.5,29.38,WSW,243,0.0,0.0,57,0.00,,,0.01,LWC V2.00 B2112,2013-02-27 23:31:00,
2013-02-27 14:36:00,32.5,19.4,29.37,WSW,244,0.0,0.0,58,0.00,,,0.01,LWC V2.00 B2112,2013-02-27 23:36:00,
2013-02-27 14:41:00,33.0,19.0,29.37,WSW,244,0.0,0.0,56,0.00,,,0.01,LWC V2.00 B2112,2013-02-27 23:41:00,
2013-02-27 14:46:00,33.3,18.5,29.37,WSW,244,0.0,0.0,54,0.00,,,0.01,LWC V2.00 B2112,2013-02-27 23:46:00,
2013-02-27 14:51:00,34.1,19.6,29.37,WSW,243,0.0,0.0,55,0.00,,,0.01,LWC V2.00 B2112,2013-02-27 23:51:00,
2013-02-27 14:56:00,34.8,19.4,29.37,WSW,244,0.0,0.0,53,0.00,,,0.01,LWC V2.00 B2112,2013-02-27 23:56:00,
2013-02-27 15:01:00,35.4,20.0,29.37,WSW,244,0.0,0.0,53,0.00,,,0.01,LWC V2.00 B2112,2013-02-28 00:01:00,
2013-02-27 15:06:00,36.0,20.1,29.37,WSW,243,0.0,0.0,52,0.00,,,0.01,LWC V2.00 B2112,2013-02-28 00:06:00,
2013-02-27 15:11:00,36.5,20.1,29.36,WSW,243,0.0,0.0,51,0.00,,,0.01,LWC V2.00 B2112,2013-02-28 00:11:00,
2013-02-27 15:16:00,36.8,19.9,29.36,WSW,244,0.0,0.0,50,0.00,,,0.01,LWC V2.00 B2112,2013-02-28 00:16:00,
2013-02-27 15:21:00,35.9,19.6,29.36,WSW,244,0.0,0.0,51,0.00,,,0.01,LWC V2.00 B2112,2013-02-28 00:21:00,
2013-02-27 15:26:00,35.9,20.0,29.36,WSW,243,0.0,0.0,52,0.00,,,0.01,LWC V2.00 B2112,2013-02-28 00:26:00,
2013-02-27 15:31:00,36.0,20.5,29.36,WSW,244,0.0,0.0,53,0.00,,,0.01,LWC V2.00 B2112,2013-02-28 00:31:00,
2013-02-27 15:36:00,35.5,19.2,29.36,WSW,244,0.0,0.0,51,0.00,,,0.01,LWC V2.00 B2112,2013-02-28 00:36:00,
2013-02-27 15:41:00,34.4,19.1,29.35,WSW,243,0.0,0.0,53,0.00,,,0.01,LWC V2.00 B2112,2013-02-28 00:41:00,
2013-02-27 15:46:00,34.1,20.1,29.35,WSW,243,0.0,0.0,56,0.00,,,0.01,LWC V2.00 B2112,2013-02-28 00:46:00,
2013-02-27 15:51:00,33.6,20.8,29.35,WSW,244,0.0,0.0,59,0.00,,,0.01,LWC V2.00 B2112,2013-02-28 00:51:00,
2013-02-27 15:56:00,33.3,20.5,29.35,WSW,244,0.0,0.0,59,0.00,,,0.01,LWC V2.00 B2112,2013-02-28 00:56:00,
2013-02-27 16:01:00,33.0,20.3,29.35,WSW,244,0.0,0.0,59,0.00,,,0.01,LWC V2.00 B2112,2013-02-28 01:01:00,
2013-02-27 16:06:00,32.4,20.5,29.35,WSW,244,0.0,0.0,61,0.00,,,0.01,LWC V2.00 B2112,2013-02-28 01:06:00,
2013-02-27 16:11:00,31.7,20.2,29.35,WSW,244,0.0,0.0,62,0.00,,,0.01,LWC V2.00 B2112,2013-02-28 01:11:00,
2013-02-27 16:16:00,31.1,20.7,29.35,WSW,243,0.0,0.0,65,0.00,,,0.01,LWC V2.00 B2112,2013-02-28 01:16:00,
2013-02-27 16:21:00,30.7,20.7,29.35,WSW,243,0.0,0.0,66,0.00,,,0.01,LWC V2.00 B2112,2013-02-28 01:21:00,
2013-02-27 16:26:00,30.4,20.4,29.35,WSW,244,0.0,0.0,66,0.00,,,0.01,LWC V2.00 B2112,2013-02-28 01:26:00,
2013-02-27 16:31:00,30.0,20.4,29.34,WSW,244,0.0,0.0,67,0.00,,,0.01,LWC V2.00 B2112,2013-02-28 01:31:00,
2013-02-27 16:36:00,29.6,20.4,29.34,WSW,243,0.0,0.0,68,0.00,,,0.01,LWC V2.00 B2112,2013-02-28 01:36:00,
2013-02-27 16:41:00,29.3,20.8,29.34,WSW,244,0.0,0.0,70,0.00,,,0.01,LWC V2.00 B2112,2013-02-28 01:41:00,
2013-02-27 16:46:00,28.9,21.0,29.34,WSW,244,0.0,0.0,72,0.00,,,0.01,LWC V2.00 B2112,2013-02-28 01:46:00,
2013-02-27 16:51:00,28.5,21.3,29.35,WSW,243,0.0,0.0,74,0.00,,,0.01,LWC V2.00 B2112,2013-02-28 01:51:00,
2013-02-27 16:56:00,28.1,20.9,29.34,WSW,244,0.0,0.0,74,0.00,,,0.01,LWC V2.00 B2112,2013-02-28 01:56:00,
2013-02-27 17:01:00,27.9,20.7,29.34,WSW,244,0.0,0.0,74,0.00,,,0.01,LWC V2.00 B2112,2013-02-28 02:01:00,
2013-02-27 17:06:00,27.6,20.7,29.34,WSW,244,0.0,0.0,75,0.00,,,0.01,LWC V2.00 B2112,2013-02-28 02:06:00,
2013-02-27 17:11:00,27.2,20.3,29.34,WSW,244,0.0,0.0,75,0.00,,,0.01,LWC V2.00 B2112,2013-02-28 02:11:00,
2013-02-27 17:16:00,26.7,20.5,29.34,WSW,244,0.0,0.0,77,0.00,,,0.01,LWC V2.00 B2112,2013-02-28 02:16:00,
2013-02-27 17:21:00,26.2,20.3,29.34,WSW,244,0.0,0.0,78,0.00,,,0.01,LWC V2.00 B2112,2013-02-28 02:21:00,
2013-02-27 17:26:00,25.7,20.4,29.34,WSW,243,0.0,0.0,80,0.00,,,0.01,LWC V2.00 B2112,2013-02-28 02:26:00,
2013-02-27 17:31:00,25.3,19.7,29.34,WSW,243,0.0,0.0,79,0.00,,,0.01,LWC V2.00 B2112,2013-02-28 02:31:00,
2013-02-27 17:36:00,25.0,19.4,29.34,WSW,244,0.0,0.0,79,0.00,,,0.01,LWC V2.00 B2112,2013-02-28 02:36:00,
2013-02-27 17:41:00,24.6,19.0,29.34,WSW,244,0.0,0.0,79,0.00,,,0.01,LWC V2.00 B2112,2013-02-28 02:41:00,
2013-02-27 17:46:00,23.9,18.6,29.34,WSW,243,0.0,0.0,80,0.00,,,0.01,LWC V2.00 B2112,2013-02-28 02:46:00,
2013-02-27 17:51:00,23.2,18.3,29.35,WSW,244,0.0,0.0,81,0.00,,,0.01,LWC V2.00 B2112,2013-02-28 02:51:00,
2013-02-27 17:56:00,22.4,17.8,29.34,WSW,244,0.0,0.0,82,0.00,,,0.01,LWC V2.00 B2112,2013-02-28 02:56:00,
2013-02-27 18:01:00,21.7,17.1,29.34,WSW,243,0.0,0.0,82,0.00,,,0.01,LWC V2.00 B2112,2013-02-28 03:01:00,
2013-02-27 18:06:00,21.1,16.8,29.35,WSW,243,0.0,0.0,83,0.00,,,0.01,LWC V2.00 B2112,2013-02-28 03:06:00,
2013-02-27 18:11:00,20.4,16.1,29.35,WSW,244,0.0,0.0,83,0.00,,,0.01,LWC V2.00 B2112,2013-02-28 03:11:00,
2013-02-27 18:16:00,19.8,15.8,29.35,WSW,244,0.0,0.0,84,0.00,,,0.01,LWC V2.00 B2112,2013-02-28 03:16:00,
2013-02-27 18:21:00,19.5,15.7,29.35,WSW,244,0.0,0.0,85,0.00,,,0.01,LWC V2.00 B2112,2013-02-28 03:21:00,
2013-02-27 18:26:00,19.2,15.4,29.35,WSW,244,0.0,0.0,85,0.00,,,0.01,LWC V2.00 B2112,2013-02-28 03:26:00,
2013-02-27 18:31:00,18.7,15.0,29.35,WSW,244,0.0,0.0,85,0.00,,,0.01,LWC V2.00 B2112,2013-02-28 03:31:00,
2013-02-27 18:36:00,18.2,14.7,29.35,WSW,243,0.0,0.0,86,0.00,,,0.01,LWC V2.00 B2112,2013-02-28 03:36:00,
2013-02-27 18:41:00,17.7,14.2,29.35,WSW,243,0.0,0.0,86,0.00,,,0.01,LWC V2.00 B2112,2013-02-28 03:41:00,
2013-02-27 18:46:00,17.6,14.1,29.35,WSW,244,0.0,0.0,86,0.00,,,0.01,LWC V2.00 B2112,2013-02-28 03:46:00,
2013-02-27 18:51:00,17.4,14.2,29.35,WSW,244,0.0,0.0,87,0.00,,,0.01,LWC V2.00 B2112,2013-02-28 03:51:00,
2013-02-27 18:56:00,17.3,14.1,29.35,WSW,243,0.0,0.0,87,0.00,,,0.01,LWC V2.00 B2112,2013-02-28 03:56:00,
2013-02-27 19:01:00,17.2,14.0,29.35,WSW,244,0.0,0.0,87,0.00,,,0.01,LWC V2.00 B2112,2013-02-28 04:01:00,
2013-02-27 19:06:00,16.8,13.6,29.35,WSW,244,0.0,0.0,87,0.00,,,0.01,LWC V2.00 B2112,2013-02-28 04:06:00,
2013-02-27 19:11:00,15.9,12.7,29.35,WSW,243,0.0,0.0,87,0.00,,,0.01,LWC V2.00 B2112,2013-02-28 04:11:00,
2013-02-27 19:16:00,15.3,12.1,29.35,WSW,243,0.0,0.0,87,0.00,,,0.01,LWC V2.00 B2112,2013-02-28 04:16:00,
2013-02-27 19:21:00,14.6,11.4,29.35,WSW,244,0.0,0.0,87,0.00,,,0.01,LWC V2.00 B2112,2013-02-28 04:21:00,
2013-02-27 19:26:00,14.2,11.1,29.35,WSW,244,0.0,0.0,87,0.00,,,0.01,LWC V2.00 B2112,2013-02-28 04:26:00,
2013-02-27 19:31:00,13.9,10.8,29.35,WSW,244,0.0,0.0,87,0.00,,,0.01,LWC V2.00 B2112,2013-02-28 04:31:00,
2013-02-27 19:36:00,13.7,10.6,29.36,WSW,244,0.0,0.0,87,0.00,,,0.01,LWC V2.00 B2112,2013-02-28 04:36:00,
2013-02-27 19:41:00,13.6,10.5,29.36,WSW,244,0.0,0.0,87,0.00,,,0.01,LWC V2.00 B2112,2013-02-28 04:41:00,
2013-02-27 19:46:00,13.6,10.7,29.36,WSW,243,0.0,0.0,88,0.00,,,0.01,LWC V2.00 B2112,2013-02-28 04:46:00,
2013-02-27 19:51:00,13.2,10.1,29.36,WSW,243,0.0,0.0,87,0.00,,,0.01,LWC V2.00 B2112,2013-02-28 04:51:00,
2013-02-27 19:56:00,13.3,10.4,29.36,WSW,244,0.0,0.0,88,0.00,,,0.01,LWC V2.00 B2112,2013-02-28 04:56:00,
2013-02-27 20:00:00,13.1,10.2,29.36,WSW,244,0.0,0.0,88,0.00,,,0.01,LWC V2.00 B2112,2013-02-28 05:00:00,
2013-02-27 20:05:00,12.5,9.6,29.36,WSW,244,0.0,0.0,88,0.00,,,0.01,LWC V2.00 B2112,2013-02-28 05:05:00,
2013-02-27 20:10:00,12.0,9.1,29.36,WSW,243,0.0,0.0,88,0.00,,,0.01,LWC V2.00 B2112,2013-02-28 05:10:00,
2013-02-27 20:15:00,11.5,8.6,29.36,WSW,244,0.0,0.0,88,0.00,,,0.01,LWC V2.00 B2112,2013-02-28 05:15:00,
2013-02-27 20:20:00,11.4,8.6,29.36,WSW,244,0.0,0.0,88,0.00,,,0.01,LWC V2.00 B2112,2013-02-28 05:20:00,
2013-02-27 20:21:00,11.3,8.5,29.36,WSW,244,0.0,0.0,88,0.00,,,0.01,LWC V2.00 B2112,2013-02-28 05:21:00,
2013-02-27 20:26:00,10.9,8.1,29.36,WSW,244,0.0,0.0,88,0.00,,,0.01,LWC V2.00 B2112,2013-02-28 05:26:00,
2013-02-27 20:31:00,10.5,7.7,29.36,WSW,243,0.0,0.0,88,0.00,,,0.01,LWC V2.00 B2112,2013-02-28 05:31:00,
2013-02-27 20:36:00,10.3,7.5,29.36,WSW,243,0.0,0.0,88,0.00,,,0.01,LWC V2.00 B2112,2013-02-28 05:36:00,
2013-02-27 20:41:00,10.0,7.2,29.36,WSW,244,0.0,0.0,88,0.00,,,0.01,LWC V2.00 B2112,2013-02-28 05:41:00,
2013-02-27 20:46:00,9.8,7.0,29.36,WSW,244,0.0,0.0,88,0.00,,,0.01,LWC V2.00 B2112,2013-02-28 05:46:00,
2013-02-27 20:51:00,9.7,6.9,29.37,WSW,243,0.0,0.0,88,0.00,,,0.01,LWC V2.00 B2112,2013-02-28 05:51:00,
2013-02-27 20:56:00,10.5,7.7,29.37,WSW,244,0.0,0.0,88,0.00,,,0.01,LWC V2.00 B2112,2013-02-28 05:56:00,
2013-02-27 21:01:00,10.7,7.9,29.37,WSW,244,0.0,0.0,88,0.00,,,0.01,LWC V2.00 B2112,2013-02-28 06:01:00,
2013-02-27 21:06:00,10.2,7.4,29.37,WSW,243,0.0,0.0,88,0.00,,,0.01,LWC V2.00 B2112,2013-02-28 06:06:00,
2013-02-27 21:11:00,9.5,6.7,29.37,WSW,243,0.0,0.0,88,0.00,,,0.01,LWC V2.00 B2112,2013-02-28 06:11:00,
2013-02-27 21:16:00,9.0,6.2,29.37,WSW,244,0.0,0.0,88,0.00,,,0.01,LWC V2.00 B2112,2013-02-28 06:16:00,
2013-02-27 21:21:00,8.6,5.8,29.37,WSW,244,0.0,0.0,88,0.00,,,0.01,LWC V2.00 B2112,2013-02-28 06:21:00,
2013-02-27 21:26:00,8.3,5.5,29.37,WSW,243,0.0,0.0,88,0.00,,,0.01,LWC V2.00 B2112,2013-02-28 06:26:00,
2013-02-27 21:31:00,8.0,5.2,29.37,WSW,244,0.0,0.0,88,0.00,,,0.01,LWC V2.00 B2112,2013-02-28 06:31:00,
2013-02-27 21:36:00,8.3,5.5,29.38,WSW,244,0.0,1.0,88,0.00,,,0.01,LWC V2.00 B2112,2013-02-28 06:36:00,
2013-02-27 21:41:00,8.8,6.0,29.38,WSW,243,0.0,0.0,88,0.00,,,0.01,LWC V2.00 B2112,2013-02-28 06:41:00,
2013-02-27 21:46:00,8.6,5.8,29.38,WSW,243,0.0,0.0,88,0.00,,,0.01,LWC V2.00 B2112,2013-02-28 06:46:00,
2013-02-27 21:51:00,8.2,5.4,29.38,WSW,244,0.0,0.0,88,0.00,,,0.01,LWC V2.00 B2112,2013-02-28 06:51:00,
2013-02-27 21:56:00,8.0,5.2,29.38,WSW,244,0.0,0.0,88,0.00,,,0.01,LWC V2.00 B2112,2013-02-28 06:56:00,
2013-02-27 22:01:00,7.7,4.9,29.38,WSW,243,0.0,0.0,88,0.00,,,0.01,LWC V2.00 B2112,2013-02-28 07:01:00,
2013-02-27 22:06:00,7.7,4.9,29.39,WSW,244,0.0,0.0,88,0.00,,,0.01,LWC V2.00 B2112,2013-02-28 07:06:00,
2013-02-27 22:11:00,7.8,5.0,29.39,SW,231,0.0,1.0,88,0.00,,,0.01,LWC V2.00 B2112,2013-02-28 07:11:00,
2013-02-27 22:16:00,7.4,4.6,29.39,SW,231,0.0,0.0,88,0.00,,,0.01,LWC V2.00 B2112,2013-02-28 07:16:00,
2013-02-27 22:21:00,7.6,4.8,29.39,SW,231,0.0,0.0,88,0.00,,,0.01,LWC V2.00 B2112,2013-02-28 07:21:00,
2013-02-27 22:26:00,7.9,5.1,29.39,SW,231,0.0,0.0,88,0.00,,,0.01,LWC V2.00 B2112,2013-02-28 07:26:00,
2013-02-27 22:31:00,7.6,4.8,29.39,SW,231,0.0,0.0,88,0.00,,,0.01,LWC V2.00 B2112,2013-02-28 07:31:00,
2013-02-27 22:36:00,7.3,4.5,29.39,SW,231,0.0,0.0,88,0.00,,,0.01,LWC V2.00 B2112,2013-02-28 07:36:00,
2013-02-27 22:41:00,6.9,4.1,29.39,SW,231,0.0,0.0,88,0.00,,,0.01,LWC V2.00 B2112,2013-02-28 07:41:00,
2013-02-27 22:46:00,7.0,4.2,29.40,SW,231,0.0,0.0,88,0.00,,,0.01,LWC V2.00 B2112,2013-02-28 07:46:00,
2013-02-27 22:51:00,7.9,5.1,29.39,SW,231,0.0,0.0,88,0.00,,,0.01,LWC V2.00 B2112,2013-02-28 07:51:00,
2013-02-27 22:56:00,7.6,4.8,29.40,SW,231,0.0,0.0,88,0.00,,,0.01,LWC V2.00 B2112,2013-02-28 07:56:00,
2013-02-27 23:01:00,7.2,4.4,29.40,SW,231,0.0,0.0,88,0.00,,,0.01,LWC V2.00 B2112,2013-02-28 08:01:00,
2013-02-27 23:06:00,6.8,4.0,29.40,SW,231,0.0,0.0,88,0.00,,,0.01,LWC V2.00 B2112,2013-02-28 08:06:00,
2013-02-27 23:11:00,6.9,4.1,29.40,SW,231,0.0,0.0,88,0.00,,,0.01,LWC V2.00 B2112,2013-02-28 08:11:00,
2013-02-27 23:16:00,6.8,4.0,29.40,SW,231,0.0,0.0,88,0.00,,,0.01,LWC V2.00 B2112,2013-02-28 08:16:00,
2013-02-27 23:21:00,6.5,3.7,29.40,SW,231,0.0,0.0,88,0.00,,,0.01,LWC V2.00 B2112,2013-02-28 08:21:00,
2013-02-27 23:26:00,6.1,3.3,29.40,SW,231,0.0,0.0,88,0.00,,,0.01,LWC V2.00 B2112,2013-02-28 08:26:00,
2013-02-27 23:31:00,5.9,3.1,29.40,SW,231,0.0,0.0,88,0.00,,,0.01,LWC V2.00 B2112,2013-02-28 08:31:00,
2013-02-27 23:36:00,5.7,2.9,29.41,SW,231,0.0,0.0,88,0.00,,,0.01,LWC V2.00 B2112,2013-02-28 08:36:00,
2013-02-27 23:41:00,5.4,2.6,29.40,SW,231,0.0,0.0,88,0.00,,,0.01,LWC V2.00 B2112,2013-02-28 08:41:00,
2013-02-27 23:46:00,5.3,2.3,29.41,SW,231,0.0,0.0,87,0.00,,,0.01,LWC V2.00 B2112,2013-02-28 08:46:00,
2013-02-27 23:51:00,5.0,2.0,29.41,SW,231,0.0,0.0,87,0.00,,,0.01,LWC V2.00 B2112,2013-02-28 08:51:00,
2013-02-27 23:56:00,4.8,2.0,29.41,SW,231,0.0,0.0,88,0.00,,,0.01,LWC V2.00 B2112,2013-02-28 08:56:00,